| time (UTC) | temp F | wind direction | speed MPH | gust MPH | rain 1hr in | rain 24hr in | rain mn in | humidity % | barometer mb |
| 20260510030646 | 54 | 81 | 0.0 | 1.0 | 0.00 | 0.00 | 0.00 | 60 | 1010.2 |
| 20260510030145 | 55 | 70 | 1.0 | 1.0 | 0.00 | 0.00 | 0.00 | 56 | 1010.2 |
| 20260510025642 | 55 | 71 | 0.0 | 1.0 | 0.00 | 0.00 | 0.00 | 55 | 1010.0 |
| 20260510025139 | 55 | 79 | 1.0 | 2.0 | 0.00 | 0.00 | 0.00 | 54 | 1009.8 |
| 20260510024635 | 55 | 83 | 0.0 | 2.0 | 0.00 | 0.00 | 0.00 | 54 | 1009.8 |
| 20260510024132 | 56 | 55 | 0.0 | 2.0 | 0.00 | 0.00 | 0.00 | 54 | 1009.8 |
| 20260510023628 | 56 | 84 | 1.0 | 2.0 | 0.00 | 0.00 | 0.00 | 54 | 1009.6 |
| 20260510023126 | 56 | 75 | 0.0 | 1.0 | 0.00 | 0.00 | 0.00 | 54 | 1009.5 |
| 20260510022625 | 57 | 89 | 0.0 | 1.0 | 0.00 | 0.00 | 0.00 | 54 | 1009.5 |
| 20260510022120 | 57 | 88 | 1.0 | 2.0 | 0.00 | 0.00 | 0.00 | 53 | 1009.4 |
| 20260510021611 | 57 | 72 | 1.0 | 3.0 | 0.00 | 0.00 | 0.00 | 52 | 1009.0 |
| 20260510021108 | 58 | 59 | 1.0 | 2.0 | 0.00 | 0.00 | 0.00 | 52 | 1008.7 |
| 20260510020602 | 59 | 88 | 1.0 | 1.0 | 0.00 | 0.00 | 0.00 | 51 | 1008.7 |
| 20260510020058 | 60 | 58 | 1.0 | 2.0 | 0.00 | 0.00 | 0.00 | 48 | 1008.5 |
| 20260510015554 | 62 | 66 | 2.0 | 3.0 | 0.00 | 0.00 | 0.00 | 46 | 1008.5 |
| 20260510015050 | 62 | 90 | 1.0 | 1.0 | 0.00 | 0.00 | 0.00 | 42 | 1008.3 |
| 20260510014546 | 62 | 61 | 1.0 | 2.0 | 0.00 | 0.00 | 0.00 | 42 | 1008.0 |
| 20260510014043 | 63 | 82 | 0.0 | 3.0 | 0.00 | 0.00 | 0.00 | 42 | 1008.0 |
| 20260510013538 | 63 | 67 | 1.0 | 2.0 | 0.00 | 0.00 | 0.00 | 42 | 1007.9 |
| 20260510013034 | 63 | 46 | 3.0 | 3.0 | 0.00 | 0.00 | 0.00 | 42 | 1007.5 |
| 20260510012528 | 63 | 53 | 1.0 | 2.0 | 0.00 | 0.00 | 0.00 | 44 | 1007.6 |
| 20260510012025 | 63 | 66 | 1.0 | 1.0 | 0.00 | 0.00 | 0.00 | 43 | 1007.5 |
| 20260510011525 | 64 | 40 | 3.0 | 5.0 | 0.00 | 0.00 | 0.00 | 41 | 1007.3 |
| 20260510011021 | 64 | 76 | 2.0 | 2.0 | 0.00 | 0.00 | 0.00 | 42 | 1007.3 |
| 20260510010518 | 65 | 72 | 1.0 | 3.0 | 0.00 | 0.00 | 0.00 | 41 | 1007.1 |
| 20260510010015 | 65 | 116 | 2.0 | 6.0 | 0.00 | 0.00 | 0.00 | 40 | 1007.1 |
| 20260510005510 | 65 | 38 | 1.0 | 2.0 | 0.00 | 0.00 | 0.00 | 43 | 1006.9 |
| 20260510005008 | 66 | 21 | 5.0 | 6.0 | 0.00 | 0.00 | 0.00 | 40 | 1007.0 |
| 20260510004505 | 66 | 335 | 2.0 | 5.0 | 0.00 | 0.00 | 0.00 | 43 | 1007.0 |
| 20260510004003 | 66 | 103 | 0.0 | 1.0 | 0.00 | 0.00 | 0.00 | 43 | 1006.3 |
| 20260510003500 | 66 | 81 | 1.0 | 3.0 | 0.00 | 0.00 | 0.00 | 42 | 1006.7 |
| 20260510002955 | 67 | 6 | 2.0 | 5.0 | 0.00 | 0.00 | 0.00 | 40 | 1006.3 |
| 20260510002451 | 67 | 32 | 3.0 | 3.0 | 0.00 | 0.00 | 0.00 | 38 | 1006.0 |
| 20260510001947 | 68 | 47 | 3.0 | 6.0 | 0.00 | 0.00 | 0.00 | 38 | 1005.9 |
| 20260510001445 | 68 | 8 | 3.0 | 5.0 | 0.00 | 0.00 | 0.00 | 37 | 1006.0 |
| 20260510000943 | 68 | 326 | 5.0 | 10.0 | 0.00 | 0.00 | 0.00 | 37 | 1005.7 |
| 20260510000440 | 68 | 277 | 2.0 | 6.0 | 0.00 | 0.00 | 0.00 | 38 | 1005.7 |
| 20260509235935 | 69 | 44 | 3.0 | 5.0 | 0.00 | 0.00 | 0.00 | 37 | 1005.7 |
| 20260509235432 | 69 | 12 | 5.0 | 9.0 | 0.00 | 0.00 | 0.00 | 38 | 1005.5 |
| 20260509234928 | 69 | 276 | 4.0 | 5.0 | 0.00 | 0.00 | 0.00 | 39 | 1005.4 |
| 20260509234425 | 69 | 264 | 4.0 | 10.0 | 0.00 | 0.00 | 0.00 | 38 | 1005.5 |
| 20260509233923 | 70 | 260 | 3.0 | 6.0 | 0.00 | 0.00 | 0.00 | 39 | 1005.5 |
| 20260509233421 | 70 | 327 | 2.0 | 2.0 | 0.00 | 0.00 | 0.00 | 39 | 1005.4 |
| 20260509232916 | 70 | 338 | 2.0 | 5.0 | 0.00 | 0.00 | 0.00 | 36 | 1005.3 |
| 20260509232415 | 70 | 47 | 2.0 | 8.0 | 0.00 | 0.00 | 0.00 | 36 | 1005.2 |
| 20260509231910 | 70 | 348 | 3.0 | 6.0 | 0.00 | 0.00 | 0.00 | 37 | 1005.2 |
| 20260509231407 | 70 | 263 | 3.0 | 8.0 | 0.00 | 0.00 | 0.00 | 36 | 1005.1 |
| 20260509230905 | 71 | 333 | 3.0 | 8.0 | 0.00 | 0.00 | 0.00 | 36 | 1005.0 |
| 20260509230401 | 71 | 137 | 5.0 | 7.0 | 0.00 | 0.00 | 0.00 | 37 | 1004.8 |
| 20260509225857 | 71 | 86 | 2.0 | 6.0 | 0.00 | 0.00 | 0.00 | 38 | 1004.8 |
| 20260509225354 | 71 | 297 | 3.0 | 9.0 | 0.00 | 0.00 | 0.00 | 38 | 1004.8 |
| 20260509224849 | 71 | 270 | 4.0 | 7.0 | 0.00 | 0.00 | 0.00 | 36 | 1004.8 |
| 20260509224345 | 71 | 1 | 5.0 | 10.0 | 0.00 | 0.00 | 0.00 | 33 | 1004.7 |
| 20260509223843 | 72 | 213 | 4.0 | 6.0 | 0.00 | 0.00 | 0.00 | 38 | 1004.5 |
| 20260509223340 | 71 | 307 | 5.0 | 8.0 | 0.00 | 0.00 | 0.00 | 34 | 1004.5 |
| 20260509222837 | 72 | 307 | 7.0 | 9.0 | 0.00 | 0.00 | 0.00 | 34 | 1004.6 |
| 20260509222332 | 72 | 313 | 5.0 | 7.0 | 0.00 | 0.00 | 0.00 | 34 | 1004.5 |
| 20260509221827 | 72 | 35 | 2.0 | 7.0 | 0.00 | 0.00 | 0.00 | 35 | 1004.5 |
| 20260509221325 | 72 | 82 | 4.0 | 7.0 | 0.00 | 0.00 | 0.00 | 35 | 1004.4 |
| 20260509220825 | 73 | 275 | 6.0 | 8.0 | 0.00 | 0.00 | 0.00 | 35 | 1004.3 |
| 20260509220321 | 73 | 210 | 4.0 | 7.0 | 0.00 | 0.00 | 0.00 | 36 | 1004.2 |
| 20260509215817 | 73 | 17 | 3.0 | 7.0 | 0.00 | 0.00 | 0.00 | 36 | 1004.4 |
| 20260509215314 | 73 | 58 | 3.0 | 6.0 | 0.00 | 0.00 | 0.00 | 35 | 1004.3 |
| 20260509214811 | 73 | 289 | 4.0 | 10.0 | 0.00 | 0.00 | 0.00 | 34 | 1004.1 |
| 20260509214308 | 73 | 358 | 3.0 | 5.0 | 0.00 | 0.00 | 0.00 | 34 | 1004.1 |
| 20260509213805 | 73 | 303 | 7.0 | 10.0 | 0.00 | 0.00 | 0.00 | 34 | 1004.1 |
| 20260509213300 | 73 | 1 | 3.0 | 5.0 | 0.00 | 0.00 | 0.00 | 36 | 1004.0 |
| 20260509212758 | 72 | 76 | 2.0 | 7.0 | 0.00 | 0.00 | 0.00 | 36 | 1003.7 |
| 20260509212255 | 73 | 45 | 4.0 | 7.0 | 0.00 | 0.00 | 0.00 | 37 | 1004.0 |
| 20260509211750 | 74 | 287 | 4.0 | 8.0 | 0.00 | 0.00 | 0.00 | 36 | 1003.9 |
| 20260509211247 | 74 | 325 | 5.0 | 8.0 | 0.00 | 0.00 | 0.00 | 34 | 1003.6 |
| 20260509210743 | 74 | 224 | 5.0 | 7.0 | 0.00 | 0.00 | 0.00 | 34 | 1003.7 |
| 20260509210242 | 74 | 326 | 3.0 | 6.0 | 0.00 | 0.00 | 0.00 | 36 | 1003.7 |
| 20260509205741 | 73 | 85 | 3.0 | 8.0 | 0.00 | 0.00 | 0.00 | 39 | 1003.6 |
| 20260509205236 | 74 | 301 | 7.0 | 9.0 | 0.00 | 0.00 | 0.00 | 35 | 1003.6 |
| 20260509204732 | 73 | 12 | 5.0 | 8.0 | 0.00 | 0.00 | 0.00 | 36 | 1003.6 |
| 20260509204229 | 75 | 348 | 5.0 | 8.0 | 0.00 | 0.00 | 0.00 | 34 | 1003.5 |
| 20260509203725 | 75 | 27 | 3.0 | 7.0 | 0.00 | 0.00 | 0.00 | 34 | 1003.7 |
| 20260509203223 | 75 | 295 | 3.0 | 9.0 | 0.00 | 0.00 | 0.00 | 37 | 1003.5 |
| 20260509202719 | 75 | 281 | 5.0 | 9.0 | 0.00 | 0.00 | 0.00 | 34 | 1003.5 |
| 20260509202215 | 72 | 260 | 5.0 | 7.0 | 0.00 | 0.00 | 0.00 | 38 | 1003.5 |
| 20260509201709 | 72 | 43 | 4.0 | 8.0 | 0.00 | 0.00 | 0.00 | 36 | 1003.6 |
| 20260509201207 | 73 | 26 | 3.0 | 7.0 | 0.00 | 0.00 | 0.00 | 37 | 1003.6 |
| 20260509200703 | 73 | 185 | 3.0 | 7.0 | 0.00 | 0.00 | 0.00 | 35 | 1003.5 |
| 20260509200157 | 74 | 279 | 3.0 | 7.0 | 0.00 | 0.00 | 0.00 | 34 | 1003.8 |
| 20260509195653 | 74 | 278 | 3.0 | 6.0 | 0.00 | 0.00 | 0.00 | 36 | 1003.6 |
| 20260509195149 | 71 | 267 | 4.0 | 8.0 | 0.00 | 0.00 | 0.00 | 37 | 1003.7 |
| 20260509194643 | 72 | 268 | 4.0 | 7.0 | 0.00 | 0.00 | 0.00 | 38 | 1003.6 |
| 20260509194141 | 73 | 265 | 4.0 | 7.0 | 0.00 | 0.00 | 0.00 | 36 | 1003.7 |
| 20260509193636 | 71 | 306 | 7.0 | 9.0 | 0.00 | 0.00 | 0.00 | 36 | 1003.8 |
| 20260509193132 | 71 | 290 | 7.0 | 9.0 | 0.00 | 0.00 | 0.00 | 36 | 1003.7 |
| 20260509192629 | 72 | 253 | 5.0 | 6.0 | 0.00 | 0.00 | 0.00 | 40 | 1003.6 |
| 20260509192123 | 71 | 244 | 5.0 | 6.0 | 0.00 | 0.00 | 0.00 | 40 | 1003.7 |
| 20260509191618 | 71 | 283 | 3.0 | 6.0 | 0.00 | 0.00 | 0.00 | 38 | 1003.8 |
| 20260509191115 | 70 | 216 | 4.0 | 6.0 | 0.00 | 0.00 | 0.00 | 39 | 1003.9 |
| 20260509190611 | 71 | 166 | 5.0 | 7.0 | 0.00 | 0.00 | 0.00 | 37 | 1003.8 |
| 20260509190109 | 72 | 289 | 5.0 | 8.0 | 0.00 | 0.00 | 0.00 | 36 | 1003.7 |
| 20260509185606 | 72 | 38 | 3.0 | 5.0 | 0.00 | 0.00 | 0.00 | 37 | 1003.6 |
| 20260509185102 | 71 | 263 | 5.0 | 6.0 | 0.00 | 0.00 | 0.00 | 39 | 1003.4 |
| 20260509184601 | 72 | 300 | 5.0 | 7.0 | 0.00 | 0.00 | 0.00 | 35 | 1003.6 |
| 20260509184057 | 73 | 287 | 4.0 | 8.0 | 0.00 | 0.00 | 0.00 | 33 | 1003.6 |
| 20260509183552 | 74 | 74 | 1.0 | 5.0 | 0.00 | 0.00 | 0.00 | 36 | 1003.4 |
| 20260509183048 | 73 | 132 | 2.0 | 5.0 | 0.00 | 0.00 | 0.00 | 41 | 1003.5 |
| 20260509182545 | 72 | 263 | 4.0 | 6.0 | 0.00 | 0.00 | 0.00 | 35 | 1003.4 |
| 20260509182042 | 72 | 206 | 3.0 | 5.0 | 0.00 | 0.00 | 0.00 | 38 | 1003.5 |
| 20260509181540 | 72 | 264 | 4.0 | 6.0 | 0.00 | 0.00 | 0.00 | 38 | 1003.6 |
| 20260509181037 | 71 | 91 | 3.0 | 6.0 | 0.00 | 0.00 | 0.00 | 39 | 1003.6 |
| 20260509180532 | 72 | 245 | 4.0 | 7.0 | 0.00 | 0.00 | 0.00 | 40 | 1003.5 |
| 20260509180031 | 73 | 359 | 3.0 | 5.0 | 0.00 | 0.00 | 0.00 | 38 | 1003.5 |
| 20260509175525 | 73 | 209 | 3.0 | 6.0 | 0.00 | 0.00 | 0.00 | 38 | 1003.8 |
| 20260509175023 | 71 | 229 | 2.0 | 3.0 | 0.00 | 0.00 | 0.00 | 38 | 1003.7 |
| 20260509174519 | 72 | 26 | 3.0 | 6.0 | 0.00 | 0.00 | 0.00 | 40 | 1003.9 |
| 20260509174014 | 73 | 273 | 4.0 | 5.0 | 0.00 | 0.00 | 0.00 | 41 | 1003.8 |
| 20260509173509 | 71 | 307 | 4.0 | 5.0 | 0.00 | 0.00 | 0.00 | 40 | 1003.8 |
| 20260509173005 | 71 | 275 | 5.0 | 6.0 | 0.00 | 0.00 | 0.00 | 40 | 1003.7 |
| 20260509172503 | 72 | 234 | 3.0 | 6.0 | 0.00 | 0.00 | 0.00 | 43 | 1004.0 |
| 20260509171958 | 72 | 274 | 5.0 | 6.0 | 0.00 | 0.00 | 0.00 | 39 | 1003.8 |
| 20260509171454 | 72 | 70 | 3.0 | 5.0 | 0.00 | 0.00 | 0.00 | 43 | 1003.9 |
| 20260509170951 | 73 | 135 | 2.0 | 5.0 | 0.00 | 0.00 | 0.00 | 45 | 1003.8 |
| 20260509170446 | 72 | 256 | 5.0 | 9.0 | 0.00 | 0.00 | 0.00 | 40 | 1004.0 |
| 20260509165942 | 72 | 13 | 4.0 | 6.0 | 0.00 | 0.00 | 0.00 | 42 | 1003.7 |
| 20260509165442 | 73 | 287 | 5.0 | 7.0 | 0.00 | 0.00 | 0.00 | 41 | 1003.8 |
| 20260509164937 | 73 | 192 | 2.0 | 5.0 | 0.00 | 0.00 | 0.00 | 55 | 1003.8 |
| 20260509164433 | 72 | 184 | 2.0 | 9.0 | 0.00 | 0.00 | 0.00 | 51 | 1003.9 |
| 20260509163929 | 71 | 349 | 3.0 | 5.0 | 0.00 | 0.00 | 0.00 | 51 | 1004.0 |
| 20260509163427 | 71 | 250 | 3.0 | 3.0 | 0.00 | 0.00 | 0.00 | 52 | 1003.9 |
| 20260509162926 | 70 | 101 | 1.0 | 7.0 | 0.00 | 0.00 | 0.00 | 52 | 1003.9 |
| 20260509162425 | 70 | 175 | 3.0 | 5.0 | 0.00 | 0.00 | 0.00 | 54 | 1003.9 |
| 20260509161920 | 69 | 41 | 0.0 | 1.0 | 0.00 | 0.00 | 0.00 | 60 | 1003.7 |
| 20260509161417 | 69 | 187 | 4.0 | 7.0 | 0.00 | 0.00 | 0.00 | 55 | 1003.8 |
| 20260509160913 | 69 | 78 | 2.0 | 5.0 | 0.00 | 0.00 | 0.00 | 60 | 1003.8 |
| 20260509160408 | 68 | 4 | 2.0 | 3.0 | 0.00 | 0.00 | 0.00 | 58 | 1003.9 |
| 20260509155904 | 68 | 89 | 1.0 | 6.0 | 0.00 | 0.00 | 0.00 | 61 | 1003.8 |
| 20260509155401 | 68 | 294 | 3.0 | 8.0 | 0.00 | 0.00 | 0.00 | 62 | 1004.1 |
| 20260509154857 | 67 | 147 | 2.0 | 5.0 | 0.00 | 0.00 | 0.00 | 64 | 1003.8 |
| 20260509154354 | 67 | 66 | 3.0 | 6.0 | 0.00 | 0.00 | 0.00 | 65 | 1003.9 |
| 20260509153850 | 67 | 10 | 2.0 | 3.0 | 0.00 | 0.00 | 0.00 | 65 | 1003.8 |
| 20260509153347 | 66 | 86 | 2.0 | 7.0 | 0.00 | 0.00 | 0.00 | 66 | 1004.0 |
| 20260509152844 | 66 | 260 | 2.0 | 3.0 | 0.00 | 0.00 | 0.00 | 67 | 1003.7 |
| 20260509152340 | 66 | 208 | 3.0 | 6.0 | 0.00 | 0.00 | 0.00 | 67 | 1003.9 |
| 20260509151838 | 65 | 143 | 5.0 | 8.0 | 0.00 | 0.00 | 0.00 | 67 | 1004.0 |
| 20260509151333 | 65 | 95 | 1.0 | 3.0 | 0.00 | 0.00 | 0.00 | 69 | 1003.8 |
| 20260509150832 | 64 | 180 | 2.0 | 3.0 | 0.00 | 0.00 | 0.00 | 70 | 1003.9 |
| 20260509150329 | 64 | 58 | 1.0 | 6.0 | 0.00 | 0.00 | 0.00 | 70 | 1004.0 |
| 20260509145827 | 64 | 160 | 1.0 | 5.0 | 0.00 | 0.00 | 0.00 | 72 | 1004.1 |
| 20260509145321 | 63 | 144 | 2.0 | 2.0 | 0.00 | 0.00 | 0.00 | 74 | 1004.0 |
| 20260509144818 | 63 | 185 | 4.0 | 8.0 | 0.00 | 0.00 | 0.00 | 74 | 1003.8 |
| 20260509144315 | 63 | 166 | 6.0 | 8.0 | 0.00 | 0.00 | 0.00 | 73 | 1004.0 |
| 20260509143812 | 62 | 189 | 2.0 | 8.0 | 0.00 | 0.00 | 0.00 | 75 | 1004.0 |
| 20260509143310 | 62 | 185 | 4.0 | 6.0 | 0.00 | 0.00 | 0.00 | 74 | 1004.1 |
| 20260509142806 | 62 | 128 | 3.0 | 6.0 | 0.00 | 0.00 | 0.00 | 75 | 1003.9 |
| 20260509142306 | 62 | 78 | 1.0 | 3.0 | 0.00 | 0.00 | 0.00 | 78 | 1003.9 |
| 20260509141757 | 61 | 136 | 2.0 | 8.0 | 0.00 | 0.00 | 0.00 | 77 | 1003.7 |
| 20260509141255 | 61 | 89 | 1.0 | 6.0 | 0.00 | 0.00 | 0.00 | 77 | 1003.8 |
| 20260509140751 | 60 | 184 | 3.0 | 7.0 | 0.00 | 0.00 | 0.00 | 78 | 1003.9 |
| 20260509140248 | 61 | 53 | 2.0 | 3.0 | 0.00 | 0.00 | 0.00 | 78 | 1003.9 |
| 20260509135746 | 60 | 100 | 0.0 | 3.0 | 0.00 | 0.00 | 0.00 | 79 | 1004.0 |
| 20260509135243 | 60 | 79 | 0.0 | 3.0 | 0.00 | 0.00 | 0.00 | 82 | 1004.0 |
| 20260509134740 | 59 | 190 | 3.0 | 5.0 | 0.00 | 0.00 | 0.00 | 82 | 1003.9 |
| 20260509134238 | 59 | 227 | 3.0 | 8.0 | 0.00 | 0.00 | 0.00 | 82 | 1003.7 |
| 20260509133735 | 58 | 159 | 5.0 | 6.0 | 0.00 | 0.00 | 0.00 | 83 | 1003.5 |
| 20260509133231 | 58 | 142 | 3.0 | 6.0 | 0.00 | 0.00 | 0.00 | 85 | 1003.5 |
| 20260509132730 | 57 | 165 | 4.0 | 6.0 | 0.00 | 0.00 | 0.00 | 85 | 1003.5 |
| 20260509132229 | 57 | 122 | 2.0 | 10.0 | 0.00 | 0.00 | 0.00 | 86 | 1003.6 |
| 20260509131725 | 57 | 170 | 5.0 | 7.0 | 0.00 | 0.00 | 0.00 | 86 | 1003.6 |
| 20260509131221 | 56 | 241 | 5.0 | 7.0 | 0.00 | 0.00 | 0.00 | 87 | 1004.0 |
| 20260509130717 | 56 | 201 | 3.0 | 8.0 | 0.00 | 0.00 | 0.00 | 87 | 1003.7 |
| 20260509130213 | 56 | 125 | 2.0 | 6.0 | 0.00 | 0.00 | 0.00 | 88 | 1003.6 |
| 20260509125710 | 56 | 178 | 3.0 | 6.0 | 0.00 | 0.00 | 0.00 | 89 | 1003.7 |
| 20260509125207 | 55 | 139 | 3.0 | 5.0 | 0.00 | 0.00 | 0.00 | 89 | 1003.7 |
| 20260509124703 | 55 | 175 | 3.0 | 6.0 | 0.00 | 0.00 | 0.00 | 90 | 1003.7 |
| 20260509124200 | 55 | 221 | 2.0 | 3.0 | 0.00 | 0.00 | 0.00 | 90 | 1003.7 |
| 20260509123659 | 55 | 163 | 1.0 | 2.0 | 0.00 | 0.00 | 0.00 | 91 | 1003.6 |
| 20260509123155 | 54 | 93 | 1.0 | 10.0 | 0.00 | 0.00 | 0.00 | 92 | 1003.7 |
| 20260509122650 | 54 | 169 | 5.0 | 8.0 | 0.00 | 0.00 | 0.00 | 93 | 1003.6 |
| 20260509122148 | 53 | 151 | 1.0 | 5.0 | 0.00 | 0.00 | 0.00 | 95 | 1003.7 |
| 20260509121644 | 53 | 202 | 5.0 | 6.0 | 0.00 | 0.00 | 0.00 | 96 | 1003.6 |
| 20260509121142 | 53 | 225 | 0.0 | 2.0 | 0.00 | 0.00 | 0.00 | 97 | 1003.7 |
| 20260509120640 | 52 | 323 | 4.0 | 6.0 | 0.00 | 0.00 | 0.00 | 97 | 1003.6 |
| 20260509120138 | 52 | 138 | 2.0 | 5.0 | 0.00 | 0.00 | 0.00 | 98 | 1003.7 |
| 20260509115635 | 51 | 280 | 2.0 | 5.0 | 0.00 | 0.00 | 0.00 | 98 | 1003.8 |
| 20260509115133 | 51 | 218 | 2.0 | 3.0 | 0.00 | 0.00 | 0.00 | 99 | 1003.8 |
| 20260509114631 | 51 | 144 | 1.0 | 3.0 | 0.00 | 0.00 | 0.00 | 99 | 1003.7 |
| 20260509114129 | 51 | 129 | 2.0 | 2.0 | 0.00 | 0.00 | 0.00 | 99 | 1003.7 |
| 20260509113628 | 51 | 153 | 1.0 | 2.0 | 0.00 | 0.00 | 0.00 | 99 | 1003.3 |
| 20260509113124 | 51 | 180 | 1.0 | 3.0 | 0.00 | 0.00 | 0.00 | 99 | 1003.5 |
| 20260509112621 | 51 | 162 | 1.0 | 2.0 | 0.00 | 0.00 | 0.00 | 99 | 1003.3 |
| 20260509112118 | 51 | 171 | 1.0 | 2.0 | 0.00 | 0.00 | 0.00 | 99 | 1003.3 |
| 20260509111615 | 50 | 114 | 1.0 | 2.0 | 0.00 | 0.00 | 0.00 | 99 | 1003.1 |
| 20260509111112 | 50 | 132 | 1.0 | 2.0 | 0.00 | 0.00 | 0.00 | 99 | 1003.2 |
| 20260509110609 | 51 | 102 | 0.0 | 1.0 | 0.00 | 0.00 | 0.00 | 99 | 1003.2 |
| 20260509110106 | 51 | 105 | 0.0 | 2.0 | 0.00 | 0.00 | 0.00 | 98 | 1003.6 |
| 20260509105604 | 51 | 160 | 1.0 | 2.0 | 0.00 | 0.00 | 0.00 | 98 | 1003.5 |
| 20260509105101 | 51 | 119 | 0.0 | 2.0 | 0.00 | 0.00 | 0.00 | 98 | 1003.4 |
| 20260509104558 | 51 | 190 | 2.0 | 5.0 | 0.00 | 0.00 | 0.00 | 98 | 1003.2 |
| 20260509104055 | 51 | 146 | 1.0 | 3.0 | 0.00 | 0.00 | 0.00 | 98 | 1003.3 |
| 20260509103553 | 51 | 165 | 1.0 | 2.0 | 0.00 | 0.00 | 0.00 | 98 | 1003.2 |
| 20260509103051 | 51 | 139 | 1.0 | 3.0 | 0.00 | 0.00 | 0.00 | 98 | 1003.1 |
| 20260509102548 | 51 | 79 | 1.0 | 2.0 | 0.00 | 0.00 | 0.00 | 98 | 1003.0 |
| 20260509102045 | 51 | 104 | 0.0 | 2.0 | 0.00 | 0.00 | 0.00 | 98 | 1003.0 |
| 20260509101541 | 51 | 108 | 1.0 | 3.0 | 0.00 | 0.00 | 0.00 | 98 | 1002.9 |
| 20260509101038 | 51 | 108 | 0.0 | 1.0 | 0.00 | 0.00 | 0.00 | 98 | 1003.0 |
| 20260509100535 | 51 | 115 | 1.0 | 1.0 | 0.00 | 0.00 | 0.00 | 98 | 1002.9 |
| 20260509100032 | 51 | 133 | 0.0 | 0.0 | 0.00 | 0.00 | 0.00 | 98 | 1003.1 |
| 20260509095529 | 51 | 192 | 1.0 | 2.0 | 0.00 | 0.00 | 0.00 | 98 | 1003.2 |
| 20260509095027 | 51 | 117 | 0.0 | 2.0 | 0.00 | 0.00 | 0.00 | 98 | 1003.2 |
| 20260509094522 | 51 | 124 | 0.0 | 3.0 | 0.00 | 0.00 | 0.00 | 98 | 1003.5 |
| 20260509094020 | 51 | 133 | 0.0 | 2.0 | 0.00 | 0.00 | 0.00 | 98 | 1003.5 |
| 20260509093518 | 51 | 202 | 0.0 | 2.0 | 0.00 | 0.00 | 0.00 | 98 | 1003.4 |
| 20260509093015 | 51 | 153 | 1.0 | 1.0 | 0.00 | 0.00 | 0.00 | 98 | 1003.5 |
| 20260509092513 | 51 | 109 | 0.0 | 2.0 | 0.00 | 0.00 | 0.00 | 98 | 1003.5 |
| 20260509092012 | 51 | 117 | 0.0 | 0.0 | 0.00 | 0.00 | 0.00 | 98 | 1003.5 |
| 20260509091508 | 51 | 185 | 1.0 | 2.0 | 0.00 | 0.00 | 0.00 | 98 | 1003.8 |
| 20260509091005 | 51 | 142 | 1.0 | 2.0 | 0.00 | 0.00 | 0.00 | 98 | 1003.7 |
| 20260509090502 | 51 | 113 | 1.0 | 2.0 | 0.00 | 0.00 | 0.00 | 98 | 1003.7 |
| 20260509090000 | 51 | 151 | 1.0 | 2.0 | 0.00 | 0.00 | 0.00 | 98 | 1003.9 |
| 20260509085457 | 51 | 273 | 2.0 | 3.0 | 0.00 | 0.00 | 0.00 | 97 | 1003.7 |
| 20260509084953 | 51 | 101 | 1.0 | 2.0 | 0.00 | 0.00 | 0.00 | 97 | 1003.6 |
| 20260509084450 | 51 | 188 | 1.0 | 2.0 | 0.00 | 0.00 | 0.00 | 97 | 1003.8 |
| 20260509083947 | 51 | 236 | 1.0 | 5.0 | 0.00 | 0.00 | 0.00 | 97 | 1003.6 |
| 20260509083445 | 51 | 136 | 1.0 | 1.0 | 0.00 | 0.00 | 0.00 | 97 | 1003.7 |
| 20260509082941 | 51 | 156 | 1.0 | 2.0 | 0.00 | 0.00 | 0.00 | 97 | 1003.8 |
| 20260509082438 | 51 | 117 | 1.0 | 2.0 | 0.00 | 0.00 | 0.00 | 97 | 1003.8 |
| 20260509081935 | 51 | 134 | 1.0 | 2.0 | 0.00 | 0.00 | 0.00 | 96 | 1003.7 |
| 20260509081427 | 51 | 101 | 1.0 | 2.0 | 0.00 | 0.00 | 0.00 | 96 | 1003.8 |
| 20260509080924 | 51 | 140 | 1.0 | 2.0 | 0.00 | 0.00 | 0.00 | 95 | 1003.9 |
| 20260509080422 | 51 | 131 | 0.0 | 1.0 | 0.00 | 0.00 | 0.00 | 95 | 1003.5 |
| 20260509075920 | 51 | 152 | 0.0 | 1.0 | 0.00 | 0.00 | 0.00 | 95 | 1003.8 |
| 20260509075416 | 52 | 133 | 0.0 | 2.0 | 0.00 | 0.00 | 0.00 | 95 | 1003.8 |
| 20260509074914 | 52 | 102 | 0.0 | 0.0 | 0.00 | 0.00 | 0.00 | 94 | 1003.9 |
| 20260509074412 | 52 | 100 | 0.0 | 1.0 | 0.00 | 0.00 | 0.00 | 94 | 1003.7 |
| 20260509073908 | 52 | 115 | 0.0 | 0.0 | 0.00 | 0.00 | 0.00 | 93 | 1004.0 |
| 20260509073404 | 53 | 115 | 0.0 | 0.0 | 0.00 | 0.00 | 0.00 | 93 | 1003.8 |
| 20260509072901 | 53 | 149 | 1.0 | 3.0 | 0.00 | 0.00 | 0.00 | 92 | 1004.1 |
| 20260509072357 | 53 | 155 | 0.0 | 2.0 | 0.00 | 0.00 | 0.00 | 92 | 1004.3 |
| 20260509071854 | 53 | 142 | 1.0 | 2.0 | 0.00 | 0.00 | 0.00 | 92 | 1004.0 |
| 20260509071351 | 53 | 120 | 2.0 | 3.0 | 0.00 | 0.00 | 0.00 | 92 | 1004.1 |
| 20260509070848 | 53 | 218 | 2.0 | 3.0 | 0.00 | 0.00 | 0.00 | 92 | 1004.0 |
| 20260509070345 | 53 | 230 | 2.0 | 2.0 | 0.00 | 0.00 | 0.00 | 92 | 1004.3 |
| 20260509065841 | 53 | 164 | 2.0 | 2.0 | 0.00 | 0.00 | 0.00 | 91 | 1004.6 |
| 20260509065337 | 53 | 180 | 1.0 | 3.0 | 0.00 | 0.00 | 0.00 | 91 | 1004.4 |
| 20260509064833 | 53 | 159 | 1.0 | 2.0 | 0.00 | 0.00 | 0.00 | 91 | 1004.5 |
| 20260509064331 | 54 | 228 | 2.0 | 2.0 | 0.00 | 0.00 | 0.00 | 91 | 1004.6 |
| 20260509063829 | 54 | 138 | 1.0 | 2.0 | 0.00 | 0.00 | 0.00 | 90 | 1004.8 |
| 20260509063324 | 54 | 126 | 1.0 | 3.0 | 0.00 | 0.00 | 0.00 | 90 | 1004.7 |
| 20260509062822 | 54 | 203 | 3.0 | 6.0 | 0.00 | 0.00 | 0.00 | 90 | 1004.6 |
| 20260509062319 | 54 | 133 | 1.0 | 3.0 | 0.00 | 0.00 | 0.00 | 90 | 1004.6 |
| 20260509061816 | 54 | 253 | 2.0 | 3.0 | 0.00 | 0.00 | 0.00 | 90 | 1004.8 |
| 20260509061314 | 54 | 101 | 2.0 | 3.0 | 0.00 | 0.00 | 0.00 | 90 | 1004.8 |
| 20260509060811 | 54 | 139 | 1.0 | 2.0 | 0.00 | 0.00 | 0.00 | 90 | 1005.0 |
| 20260509060308 | 54 | 251 | 0.0 | 5.0 | 0.00 | 0.00 | 0.00 | 89 | 1005.1 |
| 20260509055803 | 54 | 147 | 1.0 | 5.0 | 0.00 | 0.00 | 0.00 | 90 | 1004.9 |
| 20260509055259 | 54 | 118 | 0.0 | 2.0 | 0.00 | 0.00 | 0.00 | 89 | 1005.0 |
| 20260509054755 | 54 | 143 | 1.0 | 5.0 | 0.00 | 0.00 | 0.00 | 89 | 1005.0 |
| 20260509054252 | 54 | 181 | 1.0 | 3.0 | 0.00 | 0.00 | 0.00 | 89 | 1005.1 |
| 20260509053751 | 55 | 159 | 4.0 | 6.0 | 0.00 | 0.00 | 0.00 | 90 | 1005.2 |
| 20260509053248 | 55 | 254 | 1.0 | 3.0 | 0.00 | 0.00 | 0.00 | 90 | 1005.1 |
| 20260509052746 | 55 | 174 | 1.0 | 3.0 | 0.00 | 0.00 | 0.00 | 90 | 1005.2 |
| 20260509052243 | 55 | 96 | 2.0 | 5.0 | 0.00 | 0.00 | 0.00 | 90 | 1005.3 |
| 20260509051740 | 55 | 171 | 2.0 | 3.0 | 0.00 | 0.00 | 0.00 | 90 | 1005.4 |
| 20260509051239 | 55 | 172 | 2.0 | 3.0 | 0.00 | 0.00 | 0.00 | 89 | 1005.0 |
| 20260509050735 | 55 | 97 | 0.0 | 3.0 | 0.00 | 0.00 | 0.00 | 89 | 1005.0 |
| 20260509050231 | 55 | 245 | 2.0 | 2.0 | 0.00 | 0.00 | 0.00 | 89 | 1004.9 |
| 20260509045729 | 55 | 136 | 3.0 | 5.0 | 0.00 | 0.00 | 0.00 | 89 | 1005.0 |
| 20260509045225 | 55 | 143 | 1.0 | 2.0 | 0.00 | 0.00 | 0.00 | 88 | 1005.2 |
| 20260509044723 | 55 | 259 | 2.0 | 3.0 | 0.00 | 0.00 | 0.00 | 87 | 1005.0 |
| 20260509044221 | 56 | 320 | 2.0 | 2.0 | 0.00 | 0.00 | 0.00 | 87 | 1005.1 |
| 20260509043716 | 56 | 192 | 3.0 | 5.0 | 0.00 | 0.00 | 0.00 | 86 | 1005.1 |
| 20260509043213 | 56 | 109 | 2.0 | 3.0 | 0.00 | 0.00 | 0.00 | 86 | 1005.1 |
| 20260509042709 | 56 | 45 | 2.0 | 3.0 | 0.00 | 0.00 | 0.00 | 85 | 1005.2 |
| 20260509042205 | 56 | 260 | 4.0 | 5.0 | 0.00 | 0.00 | 0.00 | 84 | 1005.3 |
| 20260509041702 | 56 | 29 | 1.0 | 2.0 | 0.00 | 0.00 | 0.00 | 84 | 1005.2 |
| 20260509041200 | 56 | 107 | 1.0 | 2.0 | 0.00 | 0.00 | 0.00 | 83 | 1005.2 |
| 20260509040658 | 57 | 257 | 2.0 | 3.0 | 0.00 | 0.00 | 0.00 | 82 | 1005.3 |
| 20260509040154 | 57 | 123 | 0.0 | 2.0 | 0.00 | 0.00 | 0.00 | 81 | 1005.2 |
| 20260509035651 | 57 | 174 | 1.0 | 3.0 | 0.00 | 0.00 | 0.00 | 80 | 1005.1 |
| 20260509035148 | 58 | 174 | 3.0 | 5.0 | 0.00 | 0.00 | 0.00 | 79 | 1005.4 |
| 20260509034645 | 57 | 218 | 3.0 | 8.0 | 0.00 | 0.00 | 0.00 | 78 | 1005.4 |
| 20260509034142 | 58 | 249 | 2.0 | 6.0 | 0.00 | 0.00 | 0.00 | 77 | 1005.5 |
| 20260509033639 | 58 | 169 | 4.0 | 6.0 | 0.00 | 0.00 | 0.00 | 76 | 1005.2 |
| 20260509033136 | 58 | 321 | 2.0 | 5.0 | 0.00 | 0.00 | 0.00 | 76 | 1005.3 |
| 20260509032634 | 58 | 311 | 3.0 | 7.0 | 0.00 | 0.00 | 0.00 | 75 | 1005.3 |
| 20260509032130 | 58 | 251 | 4.0 | 6.0 | 0.00 | 0.00 | 0.00 | 75 | 1005.3 |
| 20260509031628 | 58 | 231 | 2.0 | 3.0 | 0.00 | 0.00 | 0.00 | 75 | 1005.3 |
| 20260509031125 | 58 | 292 | 3.0 | 3.0 | 0.00 | 0.00 | 0.00 | 75 | 1005.4 |